Location: Frankfurt+am+Main
(50.1100°N, 8.4815°E)
Time: 22:36:31
(UTC+01:00)

ISS - Pass Details

Date: 15 November 2017
Orbit: 402 x 407 km, 51.6° (Epoch: 19 November)

Event Time Altitude Azimuth Distance (km) Brightness Sun altitude
Exits shadow 04:55:28 22° 120° (ESE) 947 -1.4 -26.1°
Drops below altitude 10° 04:56:45 10° 117° (ESE) 1,453 -0.2 -25.9°
Sets 04:58:49 0° 115° (ESE) 2,310 1.0 -25.5°
